Kilmarnock, Virginia, United States (22482)
Lat: 37.71N, Lon: 76.38W
Wx Zone: VAZ078
Local Info
Past Weather Observations for Yesterday

NOTE: This archive is for the closest National Weather Service station to Kilmarnock. Information may differ from the station used for current weather conditions.

Click here for Long-term Archive

Time Weather Temperature Dewpoint Humidity Pressure Winds Precip Visibility
23:55
Overcast
55°F / 13°C 43°F / 6°C 63% 29.95 in
(1014 mb)
NW 8.1 mph
(NW 13 kph)
- 10SM
23:35
Overcast
55°F / 13°C 45°F / 7°C 67% 29.95 in
(1014 mb)
NW 11.5 mph
(NW 19 kph)
- 10SM
23:15
Overcast
55°F / 13°C 45°F / 7°C 67% 29.95 in
(1014 mb)
NW 10.4 mph
(NW 17 kph)
- 10SM
22:55
Mostly Cloudy
55°F / 13°C 45°F / 7°C 67% 29.95 in
(1014 mb)
NW 8.1 mph
(NW 13 kph)
- 10SM
22:35
Overcast
57°F / 14°C 45°F / 7°C 63% 29.95 in
(1014 mb)
NW 10.4 mph
(NW 17 kph)
- 10SM
22:15
Overcast
57°F / 14°C 45°F / 7°C 63% 29.95 in
(1014 mb)
NW 9.2 mph
(NW 15 kph)
- 10SM
21:55
Overcast
57°F / 14°C 46°F / 8°C 67% 29.95 in
(1014 mb)
NW 9.2 mph
(NW 15 kph)
- 10SM
21:35
Overcast
57°F / 14°C 46°F / 8°C 67% 29.95 in
(1014 mb)
NW 11.5 mph
(NW 19 kph)
- 10SM
21:15
Overcast
57°F / 14°C 46°F / 8°C 67% 29.95 in
(1014 mb)
NW 9.2 mph
(NW 15 kph)
- 10SM
20:55
Overcast
57°F / 14°C 48°F / 9°C 72% 29.95 in
(1014 mb)
NW 8.1 mph
(NW 13 kph)
- 10SM
20:35
Overcast
57°F / 14°C 48°F / 9°C 72% 29.95 in
(1014 mb)
NW 8.1 mph
(NW 13 kph)
- 10SM
20:15
Overcast
57°F / 14°C 48°F / 9°C 72% 29.95 in
(1014 mb)
NW 6.9 mph
(NW 11 kph)
- 10SM
19:55
Overcast
57°F / 14°C 50°F / 10°C 77% 29.95 in
(1014 mb)
NW 6.9 mph
(NW 11 kph)
- 10SM
19:35
Overcast
57°F / 14°C 50°F / 10°C 77% 29.95 in
(1014 mb)
NW 6.9 mph
(NW 11 kph)
- 10SM
19:15
Overcast
57°F / 14°C 50°F / 10°C 77% 29.95 in
(1014 mb)
NW 9.2 mph
(NW 15 kph)
- 10SM
18:55
Overcast
57°F / 14°C 50°F / 10°C 77% 29.95 in
(1014 mb)
NW 9.2 mph
(NW 15 kph)
- 10SM
18:35
Overcast
57°F / 14°C 50°F / 10°C 77% 29.95 in
(1014 mb)
NW 10.4 mph
(NW 17 kph)
- 10SM
18:15
Overcast
57°F / 14°C 50°F / 10°C 77% 29.95 in
(1014 mb)
NW 9.2 mph
(NW 15 kph)
- 10SM
17:55
Overcast
57°F / 14°C 50°F / 10°C 77% 29.92 in
(1013 mb)
NW 8.1 mph
(NW 13 kph)
- 10SM
17:35
Overcast
57°F / 14°C 50°F / 10°C 77% 29.92 in
(1013 mb)
NW 12.7 mph
(NW 20 kph)
- 10SM
17:15
Overcast
57°F / 14°C 50°F / 10°C 77% 29.92 in
(1013 mb)
NW 9.2 mph
(NW 15 kph)
- 10SM
16:55
Overcast
57°F / 14°C 50°F / 10°C 77% 29.92 in
(1013 mb)
NW 8.1 mph
(NW 13 kph)
- 10SM
16:35
Overcast
55°F / 13°C 52°F / 11°C 88% 29.92 in
(1013 mb)
NW 11.5 mph
(NW 19 kph)
- 10SM
16:15
Overcast
57°F / 14°C 52°F / 11°C 82% 29.92 in
(1013 mb)
NW 16.1 mph
(NW 26 kph)
- 10SM
15:55
Overcast
57°F / 14°C 52°F / 11°C 82% 29.89 in
(1012 mb)
NW 12.7 mph
(NW 20 kph)
- 10SM
15:35
Overcast
57°F / 14°C 52°F / 11°C 82% 29.89 in
(1012 mb)
NW 11.5 mph
(NW 19 kph)
- 7SM
15:15
Overcast
57°F / 14°C 52°F / 11°C 82% 29.89 in
(1012 mb)
NW 8.1 mph
(NW 13 kph)
- 7SM
14:55
Overcast
57°F / 14°C 54°F / 12°C 88% 29.89 in
(1012 mb)
NW 12.7 mph
(NW 20 kph)
- 2 1/2SM
14:35
Overcast
57°F / 14°C 52°F / 11°C 82% 29.89 in
(1012 mb)
NW 13.8 mph
(NW 22 kph)
- 3SM
14:15
Overcast
57°F / 14°C 52°F / 11°C 82% 29.89 in
(1012 mb)
NW 11.5 mph
(NW 19 kph)
- 2 1/2SM
13:55
Overcast
57°F / 14°C 52°F / 11°C 82% 29.89 in
(1012 mb)
NW 9.2 mph
(NW 15 kph)
- 10SM
13:35
Overcast
57°F / 14°C 54°F / 12°C 88% 29.89 in
(1012 mb)
NW 10.4 mph
(NW 17 kph)
- 10SM
13:15
Overcast
57°F / 14°C 54°F / 12°C 88% 29.89 in
(1012 mb)
NW 12.7 mph
(NW 20 kph)
- 10SM
12:55
Overcast
57°F / 14°C 54°F / 12°C 88% 29.89 in
(1012 mb)
NW 12.7 mph
(NW 20 kph)
0.01 in
(0.25 mm)
7SM
12:35
Overcast
57°F / 14°C 54°F / 12°C 88% 29.89 in
(1012 mb)
NW 10.4 mph
(NW 17 kph)
- 4SM
12:15
Overcast
57°F / 14°C 54°F / 12°C 88% 29.89 in
(1012 mb)
NW 11.5 mph
(NW 19 kph)
- 4SM
11:55
Overcast
57°F / 14°C 54°F / 12°C 88% 29.89 in
(1012 mb)
NW 9.2 mph
(NW 15 kph)
0.03 in
(0.76 mm)
3SM
11:35
Overcast
57°F / 14°C 54°F / 12°C 88% 29.89 in
(1012 mb)
NW 9.2 mph
(NW 15 kph)
- 7SM
11:15
Overcast
57°F / 14°C 52°F / 11°C 82% 29.89 in
(1012 mb)
NW 11.5 mph
(NW 19 kph)
- 7SM
10:55
Overcast
59°F / 15°C 52°F / 11°C 77% 29.89 in
(1012 mb)
NW 9.2 mph
(NW 15 kph)
- 10SM
10:35
Overcast
57°F / 14°C 52°F / 11°C 82% 29.89 in
(1012 mb)
NW 10.4 mph
(NW 17 kph)
- 10SM
10:15
Overcast
57°F / 14°C 52°F / 11°C 82% 29.89 in
(1012 mb)
NW 6.9 mph
(NW 11 kph)
- 10SM
09:55
Overcast
57°F / 14°C 52°F / 11°C 82% 29.89 in
(1012 mb)
NW 11.5 mph
(NW 19 kph)
- 10SM
09:35
Overcast
57°F / 14°C 52°F / 11°C 82% 29.89 in
(1012 mb)
NW 8.1 mph
(NW 13 kph)
- 10SM
09:15
Overcast
57°F / 14°C 52°F / 11°C 82% 29.89 in
(1012 mb)
NW 9.2 mph
(NW 15 kph)
- 10SM
08:55
Overcast
57°F / 14°C 52°F / 11°C 82% 29.89 in
(1012 mb)
NW 10.4 mph
(NW 17 kph)
- 10SM
08:35
Overcast
55°F / 13°C 52°F / 11°C 88% 29.89 in
(1012 mb)
NW 8.1 mph
(NW 13 kph)
- 10SM
08:15
Overcast
55°F / 13°C 52°F / 11°C 88% 29.89 in
(1012 mb)
NW 10.4 mph
(NW 17 kph)
- 10SM
07:55
Overcast
55°F / 13°C 52°F / 11°C 88% 29.89 in
(1012 mb)
NW 6.9 mph
(NW 11 kph)
- 10SM
07:35
Overcast
55°F / 13°C 52°F / 11°C 88% 29.89 in
(1012 mb)
NW 9.2 mph
(NW 15 kph)
- 10SM
07:15
Overcast
55°F / 13°C 52°F / 11°C 88% 29.89 in
(1012 mb)
NW 9.2 mph
(NW 15 kph)
- 10SM
06:55
Overcast
55°F / 13°C 52°F / 11°C 88% 29.86 in
(1011 mb)
NW 6.9 mph
(NW 11 kph)
- 5SM
06:35
Overcast
55°F / 13°C 52°F / 11°C 88% 29.86 in
(1011 mb)
NW 6.9 mph
(NW 11 kph)
- 10SM
06:15
Overcast
55°F / 13°C 50°F / 10°C 82% 29.86 in
(1011 mb)
NW 8.1 mph
(NW 13 kph)
- 10SM
05:55
Overcast
55°F / 13°C 50°F / 10°C 82% 29.86 in
(1011 mb)
NW 6.9 mph
(NW 11 kph)
- 10SM
05:35
Overcast
55°F / 13°C 50°F / 10°C 82% 29.86 in
(1011 mb)
NW 5.8 mph
(NW 9 kph)
- 10SM
05:15
Overcast
55°F / 13°C 50°F / 10°C 82% 29.86 in
(1011 mb)
NW 6.9 mph
(NW 11 kph)
- 10SM
04:55
Overcast
55°F / 13°C 50°F / 10°C 82% 29.86 in
(1011 mb)
NW 5.8 mph
(NW 9 kph)
- 10SM
04:35
Overcast
55°F / 13°C 50°F / 10°C 82% 29.86 in
(1011 mb)
NW 6.9 mph
(NW 11 kph)
- 10SM
04:15
Overcast
55°F / 13°C 50°F / 10°C 82% 29.83 in
(1010 mb)
NW 4.6 mph
(NW 7 kph)
- 10SM
03:55
Mostly Cloudy
55°F / 13°C 50°F / 10°C 82% 29.83 in
(1010 mb)
NW 5.8 mph
(NW 9 kph)
- 10SM
03:35
Overcast
55°F / 13°C 52°F / 11°C 88% 29.86 in
(1011 mb)
NW 5.8 mph
(NW 9 kph)
- 10SM
03:15
Overcast
55°F / 13°C 52°F / 11°C 88% 29.86 in
(1011 mb)
NW 5.8 mph
(NW 9 kph)
- 10SM
02:55
Overcast
55°F / 13°C 52°F / 11°C 88% 29.86 in
(1011 mb)
NW 5.8 mph
(NW 9 kph)
- 10SM
02:35
Overcast
55°F / 13°C 52°F / 11°C 88% 29.86 in
(1011 mb)
NW 6.9 mph
(NW 11 kph)
- 10SM
02:15
Overcast
55°F / 13°C 52°F / 11°C 88% 29.86 in
(1011 mb)
NW 5.8 mph
(NW 9 kph)
- 10SM
01:55
Overcast
55°F / 13°C 52°F / 11°C 88% 29.86 in
(1011 mb)
NW 5.8 mph
(NW 9 kph)
- 10SM
01:35
Overcast
55°F / 13°C 52°F / 11°C 88% 29.89 in
(1012 mb)
NW 5.8 mph
(NW 9 kph)
- 10SM
01:15
Mostly Cloudy
55°F / 13°C 52°F / 11°C 88% 29.86 in
(1011 mb)
NW 5.8 mph
(NW 9 kph)
- 10SM
00:55
Partly Cloudy
55°F / 13°C 52°F / 11°C 88% 29.86 in
(1011 mb)
WNW 5.8 mph
(WNW 9 kph)
- 10SM
00:35
Partly Cloudy
55°F / 13°C 52°F / 11°C 88% 29.86 in
(1011 mb)
NW 4.6 mph
(NW 7 kph)
- 10SM
00:15
Partly Cloudy
55°F / 13°C 52°F / 11°C 88% 29.89 in
(1012 mb)
NW 5.8 mph
(NW 9 kph)
- 10SM
Time Weather Temperature Dewpoint Humidity Pressure Winds Precip Visibility


Weather for websites

WeatherForYou.com, LLC is not responsible for any damages or problems caused by this service. Current weather conditions are obtained from the closest station including government and personal stations which may have varying degrees of accuracy. Weather forecasts are derived from the NOAA NDFD. Like all things, this site belongs to Jesus Christ... He just trusts me to maintain it. If you have any questions or comments email webmaster@weatherforyou.com

Copyright © 2014, WeatherForYou.com LLC. All rights reserved.